| time (UTC) | temp F | wind direction | speed knots | gust knots | rain 1hr in | rain 24hr in | rain mn in | humidity % | barometer mb |
| 20260505195022 | 55 | 358 | 1.7 | 4.3 | 0.00 | 0.00 | 0.00 | 68 | 1012.4 |
| 20260505194022 | 55 | 45 | 0.9 | 3.5 | 0.00 | 0.00 | 0.00 | 68 | 1012.3 |
| 20260505193023 | 56 | 65 | 1.7 | 5.2 | 0.00 | 0.00 | 0.00 | 67 | 1012.2 |
| 20260505192023 | 56 | 8 | 0.9 | 1.7 | 0.00 | 0.00 | 0.00 | 65 | 1012.1 |
| 20260505191023 | 57 | 17 | 1.7 | 2.6 | 0.00 | 0.00 | 0.00 | 64 | 1012.1 |
| 20260505190023 | 57 | 21 | 0.9 | 2.6 | 0.00 | 0.00 | 0.00 | 62 | 1012.0 |
| 20260505185043 | 58 | 21 | 2.6 | 4.3 | 0.00 | 0.00 | 0.00 | 61 | 1012.0 |
| 20260505184023 | 58 | 360 | 1.7 | 4.3 | 0.00 | 0.00 | 0.00 | 61 | 1011.9 |
| 20260505183023 | 58 | 357 | 1.7 | 3.5 | 0.00 | 0.00 | 0.00 | 59 | 1011.9 |
| 20260505182024 | 58 | 20 | 1.7 | 4.3 | 0.00 | 0.00 | 0.00 | 57 | 1011.9 |
| 20260505181024 | 59 | 15 | 1.7 | 4.3 | 0.00 | 0.00 | 0.00 | 56 | 1011.9 |
| 20260505180024 | 60 | 350 | 1.7 | 6.1 | 0.00 | 0.00 | 0.00 | 54 | 1011.8 |
| 20260505175024 | 60 | 35 | 0.0 | 1.7 | 0.00 | 0.00 | 0.00 | 54 | 1011.9 |
| 20260505174024 | 60 | 92 | 0.9 | 1.7 | 0.00 | 0.00 | 0.00 | 53 | 1011.9 |
| 20260505173024 | 60 | 58 | 1.7 | 3.5 | 0.00 | 0.00 | 0.00 | 52 | 1012.0 |
| 20260505172025 | 60 | 51 | 1.7 | 6.1 | 0.00 | 0.00 | 0.00 | 51 | 1011.9 |
| 20260505171024 | 60 | 75 | 1.7 | 3.5 | 0.00 | 0.00 | 0.00 | 52 | 1011.9 |
| 20260505170024 | 61 | 245 | 2.6 | 7.0 | 0.00 | 0.00 | 0.00 | 51 | 1012.0 |
| 20260505165025 | 62 | 90 | 0.9 | 5.2 | 0.00 | 0.00 | 0.00 | 50 | 1011.9 |
| 20260505164021 | 62 | 118 | 3.5 | 12.2 | 0.00 | 0.00 | 0.00 | 49 | 1011.9 |
| 20260505163041 | 62 | 92 | 2.6 | 7.8 | 0.00 | 0.00 | 0.00 | 49 | 1011.9 |
| 20260505162025 | 63 | 113 | 1.7 | 5.2 | 0.00 | 0.00 | 0.00 | 47 | 1011.9 |
| 20260505161021 | 63 | 250 | 3.5 | 8.7 | 0.00 | 0.00 | 0.00 | 48 | 1011.8 |
| 20260505153026 | 63 | 354 | 3.5 | 7.0 | 0.00 | 0.00 | 0.00 | 48 | 1011.9 |
| 20260505152021 | 64 | 312 | 5.2 | 11.3 | 0.00 | 0.00 | 0.00 | 48 | 1011.9 |
| 20260505151022 | 63 | 218 | 2.6 | 7.8 | 0.00 | 0.00 | 0.00 | 49 | 1011.9 |
| 20260505124017 | 61 | 346 | 1.7 | 4.3 | 0.00 | 0.00 | 0.00 | 56 | 1012.4 |
| 20260505123017 | 62 | 315 | 3.5 | 12.2 | 0.00 | 0.00 | 0.00 | 58 | 1012.5 |
| 20260505122017 | 61 | 222 | 3.5 | 8.7 | 0.00 | 0.00 | 0.00 | 58 | 1012.5 |
| 20260505121024 | 62 | 348 | 5.2 | 13.0 | 0.00 | 0.00 | 0.00 | 57 | 1012.5 |
| 20260505120023 | 62 | 316 | 3.5 | 7.8 | 0.00 | 0.00 | 0.00 | 57 | 1012.6 |
| 20260505115129 | 61 | 37 | 3.5 | 12.2 | 0.00 | 0.00 | 0.00 | 59 | 1012.7 |
| 20260505114017 | 60 | 11 | 4.3 | 12.2 | 0.00 | 0.00 | 0.00 | 61 | 1012.8 |
| 20260505113038 | 60 | 163 | 3.5 | 6.1 | 0.00 | 0.00 | 0.00 | 60 | 1012.8 |
| 20260505112018 | 60 | 313 | 3.5 | 7.8 | 0.00 | 0.00 | 0.00 | 61 | 1012.9 |
| 20260505111018 | 60 | 49 | 3.5 | 7.8 | 0.00 | 0.00 | 0.00 | 60 | 1013.0 |
| 20260505102048 | 59 | 144 | 3.5 | 6.1 | 0.00 | 0.00 | 0.00 | 62 | 1013.0 |
| 20260505101029 | 59 | 340 | 1.7 | 4.3 | 0.00 | 0.00 | 0.00 | 65 | 1013.0 |
| 20260505100059 | 59 | 348 | 5.2 | 14.8 | 0.00 | 0.00 | 0.00 | 65 | 1013.0 |
| 20260505095029 | 58 | 70 | 2.6 | 5.2 | 0.00 | 0.00 | 0.00 | 68 | 1013.0 |
| 20260505094049 | 57 | 55 | 1.7 | 5.2 | 0.00 | 0.00 | 0.00 | 69 | 1013.0 |
| 20260505093029 | 58 | 248 | 2.6 | 4.3 | 0.00 | 0.00 | 0.00 | 71 | 1013.0 |
| 20260505092029 | 58 | 342 | 2.6 | 7.8 | 0.00 | 0.00 | 0.00 | 72 | 1013.0 |
| 20260505091019 | 58 | 18 | 4.3 | 8.7 | 0.00 | 0.00 | 0.00 | 74 | 1013.1 |
| 20260505090019 | 57 | 346 | 1.7 | 4.3 | 0.00 | 0.00 | 0.00 | 75 | 1013.1 |
| 20260505085019 | 56 | 336 | 5.2 | 13.0 | 0.00 | 0.00 | 0.00 | 76 | 1013.1 |
| 20260505084019 | 56 | 348 | 6.1 | 11.3 | 0.00 | 0.00 | 0.00 | 78 | 1013.1 |
| 20260505083020 | 56 | 342 | 5.2 | 11.3 | 0.00 | 0.00 | 0.00 | 80 | 1013.0 |
| 20260505082020 | 55 | 341 | 6.1 | 12.2 | 0.00 | 0.00 | 0.00 | 82 | 1013.0 |
| 20260505081020 | 55 | 334 | 5.2 | 13.0 | 0.00 | 0.00 | 0.00 | 82 | 1013.0 |
| 20260505080017 | 55 | 51 | 4.3 | 6.1 | 0.00 | 0.00 | 0.00 | 84 | 1012.9 |
| 20260505075020 | 54 | 337 | 4.3 | 7.8 | 0.00 | 0.00 | 0.00 | 85 | 1012.9 |
| 20260505074100 | 53 | 359 | 4.3 | 10.4 | 0.00 | 0.00 | 0.00 | 87 | 1012.9 |
| 20260505073020 | 53 | 351 | 5.2 | 10.4 | 0.00 | 0.00 | 0.00 | 88 | 1012.8 |
| 20260505072021 | 53 | 344 | 4.3 | 12.2 | 0.00 | 0.00 | 0.00 | 89 | 1013.0 |
| 20260505071020 | 53 | 358 | 4.3 | 12.2 | 0.00 | 0.00 | 0.00 | 90 | 1013.1 |
| 20260505070100 | 52 | 350 | 3.5 | 7.8 | 0.00 | 0.00 | 0.00 | 91 | 1013.1 |
| 20260505065021 | 52 | 346 | 2.6 | 7.0 | 0.00 | 0.00 | 0.00 | 92 | 1013.2 |
| 20260505064021 | 51 | 360 | 5.2 | 9.6 | 0.00 | 0.00 | 0.00 | 92 | 1013.1 |
| 20260505063021 | 51 | 353 | 4.3 | 9.6 | 0.00 | 0.00 | 0.00 | 93 | 1013.0 |
| 20260505062041 | 51 | 340 | 4.3 | 9.6 | 0.00 | 0.00 | 0.00 | 93 | 1013.0 |
| 20260505061021 | 51 | 350 | 4.3 | 9.6 | 0.00 | 0.00 | 0.00 | 93 | 1013.1 |
| 20260505060018 | 51 | 329 | 2.6 | 7.8 | 0.00 | 0.00 | 0.00 | 93 | 1013.1 |
| 20260505055021 | 51 | 343 | 2.6 | 9.6 | 0.00 | 0.00 | 0.00 | 93 | 1013.0 |
| 20260505054021 | 51 | 355 | 3.5 | 7.0 | 0.00 | 0.00 | 0.00 | 93 | 1012.9 |
| 20260505053018 | 51 | 12 | 3.5 | 6.1 | 0.00 | 0.00 | 0.00 | 94 | 1012.9 |
| 20260505052042 | 51 | 351 | 4.3 | 7.8 | 0.00 | 0.00 | 0.00 | 94 | 1013.1 |
| 20260505051021 | 51 | 14 | 2.6 | 5.2 | 0.00 | 0.00 | 0.00 | 94 | 1013.0 |
| 20260505041019 | 51 | 344 | 2.6 | 5.2 | 0.00 | 0.00 | 0.00 | 94 | 1013.4 |
| 20260505040040 | 51 | 11 | 2.6 | 6.1 | 0.00 | 0.00 | 0.00 | 94 | 1013.6 |
| 20260505035022 | 52 | 17 | 2.6 | 7.8 | 0.00 | 0.00 | 0.00 | 94 | 1013.7 |
| 20260505034019 | 52 | 348 | 2.6 | 4.3 | 0.00 | 0.00 | 0.00 | 94 | 1013.8 |
| 20260505033020 | 52 | 21 | 1.7 | 5.2 | 0.00 | 0.00 | 0.00 | 94 | 1013.8 |
| 20260505032020 | 52 | 16 | 0.9 | 3.5 | 0.00 | 0.00 | 0.00 | 94 | 1013.9 |
| 20260505031020 | 52 | 94 | 0.9 | 3.5 | 0.00 | 0.00 | 0.00 | 94 | 1013.9 |
| 20260505030020 | 52 | 7 | 0.9 | 3.5 | 0.00 | 0.00 | 0.00 | 94 | 1014.0 |
| 20260505025020 | 52 | 16 | 1.7 | 3.5 | 0.00 | 0.00 | 0.00 | 94 | 1014.1 |
| 20260505024020 | 52 | 52 | 0.9 | 3.5 | 0.00 | 0.00 | 0.00 | 94 | 1014.1 |
| 20260505023020 | 52 | 51 | 0.0 | 1.7 | 0.00 | 0.00 | 0.00 | 95 | 1014.1 |
| 20260505022020 | 52 | 245 | 0.0 | 0.9 | 0.00 | 0.00 | 0.00 | 95 | 1014.1 |
| 20260505021021 | 52 | 9 | 1.7 | 4.3 | 0.00 | 0.00 | 0.00 | 95 | 1014.2 |
| 20260505020021 | 52 | 0.0 | 0.0 | 0.00 | 0.00 | 0.00 | 95 | 1014.2 | |
| 20260505015021 | 52 | 6 | 1.7 | 3.5 | 0.00 | 0.00 | 0.00 | 95 | 1014.2 |
| 20260505014021 | 52 | 15 | 1.7 | 3.5 | 0.00 | 0.00 | 0.00 | 95 | 1014.3 |
| 20260505013021 | 52 | 67 | 0.9 | 1.7 | 0.00 | 0.00 | 0.00 | 95 | 1014.3 |
| 20260505012021 | 53 | 58 | 0.9 | 3.5 | 0.00 | 0.00 | 0.00 | 95 | 1014.4 |
| 20260505011021 | 53 | 79 | 1.7 | 3.5 | 0.00 | 0.00 | 0.00 | 95 | 1014.6 |
| 20260505010022 | 53 | 343 | 0.9 | 1.7 | 0.00 | 0.00 | 0.00 | 95 | 1014.4 |
| 20260505005022 | 53 | 89 | 1.7 | 4.3 | 0.00 | 0.00 | 0.00 | 95 | 1014.5 |
| 20260505004022 | 53 | 15 | 1.7 | 3.5 | 0.00 | 0.00 | 0.00 | 95 | 1014.6 |
| 20260505003022 | 53 | 358 | 0.9 | 3.5 | 0.00 | 0.00 | 0.00 | 95 | 1014.8 |
| 20260505002022 | 53 | 25 | 1.7 | 4.3 | 0.00 | 0.00 | 0.00 | 96 | 1015.1 |
| 20260505001023 | 52 | 55 | 0.9 | 1.7 | 0.00 | 0.00 | 0.00 | 96 | 1015.0 |
| 20260505000022 | 52 | 9 | 1.7 | 5.2 | 0.00 | 0.00 | 0.00 | 96 | 1014.9 |
| 20260504235023 | 52 | 80 | 2.6 | 5.2 | 0.00 | 0.00 | 0.00 | 96 | 1015.0 |
| 20260504234023 | 52 | 60 | 1.7 | 4.3 | 0.00 | 0.00 | 0.00 | 96 | 1015.0 |
| 20260504233020 | 53 | 76 | 1.7 | 5.2 | 0.00 | 0.00 | 0.00 | 96 | 1014.9 |
| 20260504232037 | 53 | 98 | 4.3 | 8.7 | 0.00 | 0.00 | 0.00 | 96 | 1014.9 |
| 20260504231018 | 53 | 90 | 3.5 | 8.7 | 0.00 | 0.00 | 0.00 | 96 | 1015.0 |
| 20260504230017 | 53 | 92 | 2.6 | 7.0 | 0.00 | 0.00 | 0.00 | 97 | 1014.8 |
| 20260504225018 | 53 | 74 | 1.7 | 6.1 | 0.00 | 0.00 | 0.00 | 97 | 1014.9 |
| 20260504224038 | 53 | 48 | 0.9 | 4.3 | 0.00 | 0.00 | 0.00 | 97 | 1014.9 |
| 20260504223038 | 53 | 73 | 1.7 | 6.1 | 0.00 | 0.00 | 0.00 | 97 | 1015.1 |
| 20260504222018 | 54 | 96 | 1.7 | 9.6 | 0.00 | 0.00 | 0.00 | 98 | 1015.2 |
| 20260504221018 | 54 | 21 | 0.9 | 4.3 | 0.00 | 0.00 | 0.00 | 98 | 1015.3 |
| 20260504220018 | 54 | 85 | 1.7 | 6.1 | 0.00 | 0.00 | 0.00 | 98 | 1015.3 |
| 20260504215018 | 54 | 85 | 0.9 | 2.6 | 0.00 | 0.00 | 0.00 | 98 | 1015.3 |
| 20260504214019 | 54 | 75 | 0.9 | 3.5 | 0.00 | 0.00 | 0.00 | 98 | 1015.3 |
| 20260504213019 | 54 | 31 | 0.9 | 4.3 | 0.00 | 0.00 | 0.00 | 98 | 1015.3 |
| 20260504212019 | 54 | 22 | 3.5 | 5.2 | 0.00 | 0.00 | 0.00 | 98 | 1015.3 |
| 20260504211016 | 54 | 18 | 3.5 | 5.2 | 0.00 | 0.00 | 0.00 | 98 | 1015.2 |
| 20260504210039 | 54 | 0.0 | 0.0 | 0.00 | 0.00 | 0.00 | 98 | 1015.2 | |
| 20260504205019 | 54 | 53 | 0.0 | 1.7 | 0.00 | 0.00 | 0.00 | 97 | 1015.3 |
| 20260504204019 | 54 | 30 | 0.9 | 3.5 | 0.00 | 0.00 | 0.00 | 97 | 1015.2 |
| 20260504203039 | 54 | 20 | 0.9 | 5.2 | 0.00 | 0.00 | 0.00 | 97 | 1015.0 |
| 20260504202036 | 54 | 21 | 3.5 | 5.2 | 0.00 | 0.00 | 0.00 | 97 | 1015.0 |
| 20260504201017 | 54 | 30 | 0.9 | 3.5 | 0.00 | 0.00 | 0.00 | 97 | 1015.0 |
| 20260504200020 | 54 | 39 | 0.9 | 3.5 | 0.00 | 0.00 | 0.00 | 97 | 1015.0 |